Location: *
(43.4667°N, 11.6833°E)
Time: 10:34:52
(UTC+00:00)

GP-B - Pass Details

Date: 19 July 2019
Orbit: 631 x 635 km, 89.8° (Epoch: 25 August)

Event Time Altitude Azimuth Distance (km) Brightness Sun altitude
Rises 23:00:30 0° 352° (N) 2,943 7.9 -25.6°
Reaches altitude 10° 23:02:52 10° 344° (NNW) 2,029 6.7 -25.7°
Maximum altitude 23:06:53 34° 279° (W) 1,048 4.2 -25.7°
Enters shadow 23:07:00 34° 276° (W) 1,049 4.2 -25.7°
